Regional Weather Roundup
Issued by NWS Newport/Morehead, NC

Home | Current Version | Previous Version | Text Only | Print | Product List | Glossary On
Versions: 1 2 3 4 5 6 7 8 9 10 11 12 13 14 15 16 17 18 19 20 21 22 23 24 25 26 27 28 29 30 31 32 33 34 35 36 37 38 39 40 41 42 43 44 45 46 47 48 49 50
000
ASUS42 KMHX 291222
RWRMHX
WEATHER ROUNDUP FOR EASTERN NORTH CAROLINA
NATIONAL WEATHER SERVICE NEWPORT/MOREHEAD CITY NC
700 AM EST THU JAN 29 2015

NOTE: "FAIR" INDICATES FEW OR NO CLOUDS BELOW 12,000 FEET
WITH NO SIGNIFICANT WEATHER AND/OR OBSTRUCTIONS TO VISIBILITY

NCZ015>017-031-032-045>047-102-103-291300-
NORTH COAST

CITY           SKY/WX    TMP DP  RH WIND       PRES   REMARKS
EDENTON        CLEAR     23  16  75 CALM      30.36R
ELIZABETH CITY CLEAR     21  14  74 W6        30.36R
KITTY HAWK     SUNNY     30  24  77 NW3       30.31R
MANTEO         CLEAR     30  21  69 N5        30.33R

$$

NCZ045>047-081-094-103-104-291300-
CENTRAL COAST

CITY           SKY/WX    TMP DP  RH WIND       PRES   REMARKS
FRISCO         CLEAR     34  21  59 VRB7      30.33R
SWANQUARTER    NOT AVBL

$$

NCZ095-097-098-100-101-291300-
SOUTHERN COAST

CITY           SKY/WX    TMP DP  RH WIND       PRES   REMARKS
BEAUFORT       CLEAR     27  20  75 N6        30.36R
CEDAR ISLAND   NOT AVBL
JACKSONVILLE   CLEAR     23  20  88 CALM      30.36R
PINEY ISLAND     N/A    N/A N/A N/A MISG      30.35R
WILMINGTON     PTCLDY    26  21  81 CALM      30.36R


$$

NCZ011>013-027>030-043-044-078>080-089-090>093-098-291300-
COASTAL PLAIN

CITY           SKY/WX    TMP DP  RH WIND       PRES   REMARKS
AHOSKIE        CLEAR     19  14  81 CALM      30.37R
CLINTON        MOCLDY    24  23  95 CALM      30.37R
ELIZABETHTOWN  MOCLDY    25  21  87 CALM      30.37R
GOLDSBORO      PTCLDY    23  22  97 CALM      30.35R
GREENVILLE     CLEAR     21  21 100 CALM      30.36S
HAVELOCK       CLEAR     25  18  74 CALM      30.37R
KENANSVILLE    PTCLDY    21  20  96 CALM      30.38R
KINSTON        NOT AVBL
NEW BERN       CLEAR     24  19  81 CALM      30.37R
RICHLANDS      PTCLDY    19  18  93 CALM      30.37R
ROCKY MOUNT    CLEAR     23  18  81 CALM      30.36R
WASHINGTON     CLEAR     22  16  79 CALM      30.37R
WHITEVILLE     PTCLDY    25  21  84 CALM      30.36R

$$

AMZ130-135-150-152-154-156-158-170-250-252-270-ANZ085-086-088-633-658-670-291300-
MARINE OBSERVATIONS

STATION/POSITION TIME  TEMP    WIND        PRES    WAVE   SWELL
                       AIR SEA DIR/SP/G            HT/PER HT/PER
                 (UTC) (F)     (DEG/KT/KT) (MB)    (FT/S) (FT/S)
CHESAPEAKE LIGHT 1200   33      10/ 11/ 13 1027.6
64 E VA BEACH    1200   37 49  360/ 12/ 16 1025.4    6/11   5/11
DUCK             1200   33 42  330/  9/ 10 1026.3
2 E DUCK         1200      42                N/A     4/ 7   2/13
10 NE DUCK       1200      44                N/A     5/12   2/12
OREGON INLET     1200   32 41  310/  5/  7 1026.8
13E OREGON INLT  1200      44                N/A     6/12   3/12
HATTERAS CG      1200   36 43   10/ 10/ 12 1027.3
DIAMOND BUOY     1200   39 71  350/ 14/ 19 1026.3    6/ 8   5/ 8
17 S OCRACOKE    NOT AVBL
CAPE LOOKOUT     1200   34     340/  7/  9 1027.7
BEAUFORT LAB     1200   33 47  340/  5/  7 1026.9
27 SE WRIGHTSVLE NOT AVBL
5 SE WRIGHTSVLE  1200   41 52   30/ 10/ 12 1027.8
225 S CAPE HAT   1110   55 72  350/ 16/ 21 1025.0    9/ 9   7/ 9
41 SE CHARLESTON 1200   51 67   60/  6/  8 1027.2    3/ 8   3/ 8

$$


USA.gov is the U.S. government's official web portal to all federal, state and local government web resources and services.